User: anonymous   Login
Location: Newark
(41.8083°N, 72.2500°W)
Time: 00:44:04
(UTC+00:00)
Language:

S-56A Canister/Altair - Orbit

View from above orbital plane
View from above orbital plane
View from above satellite
View from above satellite

Ground track
Ground track

The orbit data is extracted from the following two-line orbital elements,

1    82U 61004B   21331.52142636 -.00000121  00000-0 -51021-4 0  9999
2    82  38.8573  43.0281 1174742 112.1049 260.8409 12.26013395872624
Epoch (UTC): 27 November 2021 12:30:51
Eccentricity: 0.1174742
inclination: 38.8573°
perigee height: 633 km
apogee height: 2500 km
right ascension of ascending node: 43.0281°
argument of perigee: 112.1049°
revolutions per day: 12.26013395
mean anomaly at epoch: 260.8409°
orbit number at epoch: 87262

The dashed part of the orbit path shows where the satellite is in the earth's shadow,  

DLR